Time,TemperatureF,DewpointF,PressureIn,WindDirection,WindDirectionDegrees,WindSpeedMPH,WindSpeedGustMPH,Humidity,HourlyPrecipIn,Conditions,Clouds,dailyrainin,SoftwareType,DateUTC
2013-01-25 00:02:00,20.0,8.0,-100.00,SSW,205,4.0,11.0,57,0.00,,,-99.99,,2013-01-25 06:02:00,
2013-01-25 00:11:00,21.0,8.0,-100.00,SSW,205,5.0,9.0,58,0.00,,,-99.99,,2013-01-25 06:11:00,
2013-01-25 00:21:00,21.0,8.0,-100.00,SSW,210,7.0,11.0,58,0.00,,,-99.99,,2013-01-25 06:21:00,
2013-01-25 00:32:00,21.0,8.0,-100.00,SW,215,9.0,11.0,57,0.00,,,-99.99,,2013-01-25 06:32:00,
2013-01-25 00:42:00,21.0,8.0,-100.00,SW,215,9.0,11.0,57,0.00,,,-99.99,,2013-01-25 06:42:00,
2013-01-25 00:51:00,21.0,8.0,-100.00,SW,225,10.0,13.0,56,0.00,,,-99.99,,2013-01-25 06:51:00,
2013-01-25 01:02:00,21.0,8.0,-100.00,SW,225,10.0,13.0,56,0.00,,,-99.99,,2013-01-25 07:02:00,
2013-01-25 01:11:00,21.0,9.0,-100.00,SW,215,9.0,14.0,57,0.00,,,-99.99,,2013-01-25 07:11:00,
2013-01-25 01:21:00,21.0,9.0,-100.00,SSW,210,10.0,13.0,57,0.00,,,-99.99,,2013-01-25 07:21:00,
2013-01-25 01:32:00,21.0,8.0,-100.00,WSW,240,9.0,12.0,55,0.00,,,-99.99,,2013-01-25 07:32:00,
2013-01-25 01:42:00,21.0,8.0,-100.00,WSW,240,9.0,12.0,55,0.00,,,-99.99,,2013-01-25 07:42:00,
2013-01-25 01:51:00,21.0,8.0,-100.00,SW,220,9.0,12.0,57,0.00,,,-99.99,,2013-01-25 07:51:00,
2013-01-25 02:01:00,21.0,8.0,-100.00,SW,220,9.0,12.0,57,0.00,,,-99.99,,2013-01-25 08:01:00,
2013-01-25 02:11:00,21.0,9.0,-100.00,SW,215,7.0,12.0,59,0.00,,,-99.99,,2013-01-25 08:11:00,
2013-01-25 02:21:00,21.0,9.0,-100.00,SSW,210,8.0,11.0,58,0.00,,,-99.99,,2013-01-25 08:21:00,
2013-01-25 02:32:00,21.0,9.0,-100.00,SW,215,11.0,14.0,59,0.00,,,-99.99,,2013-01-25 08:32:00,
2013-01-25 02:41:00,21.0,9.0,-100.00,SW,215,11.0,14.0,59,0.00,,,-99.99,,2013-01-25 08:41:00,
2013-01-25 02:52:00,21.0,10.0,-100.00,SW,225,7.0,12.0,61,0.00,,,-99.99,,2013-01-25 08:52:00,
2013-01-25 03:01:00,21.0,10.0,-100.00,SW,225,7.0,12.0,61,0.00,,,-99.99,,2013-01-25 09:01:00,
2013-01-25 03:11:00,21.0,10.0,-100.00,WSW,240,7.0,12.0,62,0.00,,,-99.99,,2013-01-25 09:11:00,
2013-01-25 03:21:00,21.0,11.0,-100.00,WSW,245,7.0,12.0,63,0.00,,,-99.99,,2013-01-25 09:21:00,
2013-01-25 03:31:00,21.0,11.0,-100.00,West,260,4.0,9.0,64,0.00,,,-99.99,,2013-01-25 09:31:00,
2013-01-25 03:41:00,21.0,11.0,-100.00,West,260,4.0,9.0,64,0.00,,,-99.99,,2013-01-25 09:41:00,
2013-01-25 03:51:00,21.0,12.0,-100.00,WSW,255,4.0,7.0,66,0.00,,,-99.99,,2013-01-25 09:51:00,
2013-01-25 04:02:00,21.0,12.0,-100.00,WSW,255,4.0,7.0,66,0.00,,,-99.99,,2013-01-25 10:02:00,
2013-01-25 04:12:00,21.0,12.0,-100.00,WSW,255,3.0,7.0,67,0.00,,,-99.99,,2013-01-25 10:12:00,
2013-01-25 04:21:00,21.0,12.0,-100.00,WSW,250,4.0,6.0,67,0.00,,,-99.99,,2013-01-25 10:21:00,
2013-01-25 04:32:00,21.0,12.0,-100.00,West,260,6.0,9.0,67,0.00,,,-99.99,,2013-01-25 10:32:00,
2013-01-25 04:42:00,21.0,12.0,-100.00,West,260,6.0,9.0,67,0.00,,,-99.99,,2013-01-25 10:42:00,
2013-01-25 04:51:00,20.0,12.0,-100.00,SW,235,7.0,10.0,70,0.00,,,-99.99,,2013-01-25 10:51:00,
2013-01-25 05:02:00,20.0,12.0,-100.00,SW,235,7.0,10.0,70,0.00,,,-99.99,,2013-01-25 11:02:00,
2013-01-25 05:11:00,20.0,13.0,-100.00,WSW,245,4.0,9.0,73,0.00,,,-99.99,,2013-01-25 11:11:00,
2013-01-25 05:22:00,19.0,13.0,-100.00,WSW,240,5.0,7.0,74,0.00,,,-99.99,,2013-01-25 11:22:00,
2013-01-25 05:32:00,18.0,13.0,-100.00,WSW,250,6.0,7.0,78,0.00,,,-99.99,,2013-01-25 11:32:00,
2013-01-25 05:42:00,18.0,13.0,-100.00,WSW,250,6.0,7.0,78,0.00,,,-99.99,,2013-01-25 11:42:00,
2013-01-25 05:52:00,18.0,13.0,-100.00,WSW,250,4.0,6.0,79,0.00,,,-99.99,,2013-01-25 11:52:00,
2013-01-25 06:02:00,18.0,13.0,-100.00,WSW,250,4.0,6.0,79,0.00,,,-99.99,,2013-01-25 12:02:00,
2013-01-25 06:11:00,18.0,13.0,-100.00,WSW,255,2.0,6.0,80,0.00,,,-99.99,,2013-01-25 12:11:00,
2013-01-25 06:22:00,17.0,12.0,-100.00,West,270,2.0,5.0,81,0.00,,,-99.99,,2013-01-25 12:22:00,
2013-01-25 06:32:00,14.0,10.0,-100.00,SW,230,2.0,3.0,84,0.00,,,-99.99,,2013-01-25 12:32:00,
2013-01-25 06:42:00,14.0,10.0,-100.00,SW,230,2.0,3.0,84,0.00,,,-99.99,,2013-01-25 12:42:00,
2013-01-25 06:52:00,14.0,11.0,-100.00,SW,235,4.0,6.0,87,0.00,,,-99.99,,2013-01-25 12:52:00,
2013-01-25 07:02:00,14.0,11.0,-100.00,SW,235,4.0,6.0,87,0.00,,,-99.99,,2013-01-25 13:02:00,
2013-01-25 07:11:00,13.0,10.0,-100.00,WSW,240,4.0,6.0,89,0.00,,,-99.99,,2013-01-25 13:11:00,
2013-01-25 07:22:00,12.0,10.0,-100.00,WSW,240,4.0,6.0,90,0.00,,,-99.99,,2013-01-25 13:22:00,
2013-01-25 07:32:00,14.0,12.0,-100.00,WSW,240,7.0,8.0,93,0.00,,,-99.99,,2013-01-25 13:32:00,
2013-01-25 07:42:00,14.0,12.0,-100.00,WSW,240,7.0,8.0,93,0.00,,,-99.99,,2013-01-25 13:42:00,
2013-01-25 07:52:00,14.0,13.0,-100.00,SW,235,7.0,9.0,92,0.00,,,-99.99,,2013-01-25 13:52:00,
2013-01-25 08:03:00,14.0,13.0,-100.00,SW,235,7.0,9.0,92,0.00,,,-99.99,,2013-01-25 14:03:00,
2013-01-25 08:12:00,15.0,13.0,-100.00,WSW,240,7.0,9.0,92,0.00,,,-99.99,,2013-01-25 14:12:00,
2013-01-25 08:22:00,15.0,13.0,-100.00,WSW,240,7.0,9.0,91,0.00,,,-99.99,,2013-01-25 14:22:00,
2013-01-25 08:32:00,17.0,14.0,-100.00,SW,235,8.0,10.0,88,0.00,,,-99.99,,2013-01-25 14:32:00,
2013-01-25 08:42:00,17.0,14.0,-100.00,SW,235,8.0,10.0,88,0.00,,,-99.99,,2013-01-25 14:42:00,
2013-01-25 08:52:00,19.0,15.0,-100.00,SW,235,9.0,13.0,85,0.00,,,-99.99,,2013-01-25 14:52:00,
2013-01-25 09:02:00,19.0,15.0,-100.00,SW,235,9.0,13.0,85,0.00,,,-99.99,,2013-01-25 15:02:00,
2013-01-25 09:12:00,20.0,15.0,-100.00,West,260,7.0,12.0,79,0.00,,,-99.99,,2013-01-25 15:12:00,
2013-01-25 09:22:00,20.0,14.0,-100.00,WSW,250,10.0,14.0,75,0.00,,,-99.99,,2013-01-25 15:22:00,
2013-01-25 09:32:00,23.0,13.0,-100.00,WNW,290,8.0,12.0,66,0.00,,,-99.99,,2013-01-25 15:32:00,
2013-01-25 09:42:00,23.0,13.0,-100.00,WNW,290,8.0,12.0,66,0.00,,,-99.99,,2013-01-25 15:42:00,
2013-01-25 09:52:00,24.0,13.0,-100.00,WSW,255,12.0,17.0,60,0.00,,,-99.99,,2013-01-25 15:52:00,
2013-01-25 10:03:00,24.0,13.0,-100.00,WSW,255,12.0,17.0,60,0.00,,,-99.99,,2013-01-25 16:03:00,
2013-01-25 10:12:00,26.0,13.0,-100.00,WNW,300,11.0,20.0,58,0.00,,,-99.99,,2013-01-25 16:12:00,
2013-01-25 10:22:00,26.0,13.0,-100.00,West,280,13.0,17.0,58,0.00,,,-99.99,,2013-01-25 16:22:00,
2013-01-25 10:32:00,27.0,14.0,-100.00,NW,310,16.0,21.0,58,0.00,,,-99.99,,2013-01-25 16:32:00,
2013-01-25 10:42:00,27.0,14.0,-100.00,NW,310,16.0,21.0,58,0.00,,,-99.99,,2013-01-25 16:42:00,
2013-01-25 10:52:00,28.0,15.0,-100.00,NNW,330,11.0,20.0,58,0.00,,,-99.99,,2013-01-25 16:52:00,
2013-01-25 11:02:00,28.0,15.0,-100.00,NNW,330,11.0,20.0,58,0.00,,,-99.99,,2013-01-25 17:02:00,
2013-01-25 11:12:00,28.0,15.0,-100.00,NW,325,17.0,21.0,59,0.00,,,-99.99,,2013-01-25 17:12:00,
2013-01-25 11:22:00,29.0,16.0,-100.00,NW,305,11.0,21.0,57,0.00,,,-99.99,,2013-01-25 17:22:00,
2013-01-25 11:32:00,29.0,17.0,-100.00,NW,305,12.0,21.0,59,0.00,,,-99.99,,2013-01-25 17:32:00,
2013-01-25 11:42:00,29.0,17.0,-100.00,NW,305,12.0,21.0,59,0.00,,,-99.99,,2013-01-25 17:42:00,
2013-01-25 11:52:00,30.0,17.0,-100.00,WNW,300,12.0,19.0,58,0.00,,,-99.99,,2013-01-25 17:52:00,
2013-01-25 12:03:00,30.0,17.0,-100.00,WNW,300,12.0,19.0,58,0.00,,,-99.99,,2013-01-25 18:03:00,
2013-01-25 12:11:00,31.0,18.0,-100.00,NW,320,11.0,20.0,59,0.00,,,-99.99,,2013-01-25 18:11:00,
2013-01-25 12:23:00,31.0,18.0,-100.00,NW,325,14.0,21.0,58,0.00,,,-99.99,,2013-01-25 18:23:00,
2013-01-25 12:33:00,32.0,18.0,-100.00,NW,320,15.0,22.0,57,0.00,,,-99.99,,2013-01-25 18:33:00,
2013-01-25 12:42:00,32.0,18.0,-100.00,NW,320,15.0,22.0,57,0.00,,,-99.99,,2013-01-25 18:42:00,
2013-01-25 12:52:00,31.0,18.0,-100.00,NW,325,16.0,22.0,58,0.00,,,-99.99,,2013-01-25 18:52:00,
2013-01-25 13:03:00,32.0,19.0,-100.00,NW,305,16.0,21.0,58,0.00,,,-99.99,,2013-01-25 19:03:00,
2013-01-25 13:12:00,32.0,20.0,-100.00,WNW,300,13.0,24.0,61,0.00,,,-99.99,,2013-01-25 19:12:00,
2013-01-25 13:22:00,32.0,21.0,-100.00,NW,305,17.0,21.0,64,0.00,,,-99.99,,2013-01-25 19:22:00,
2013-01-25 13:32:00,33.0,22.0,-100.00,NW,305,9.0,23.0,63,0.00,,,-99.99,,2013-01-25 19:32:00,
2013-01-25 13:42:00,33.0,22.0,-100.00,NW,305,9.0,23.0,63,0.00,,,-99.99,,2013-01-25 19:42:00,
2013-01-25 13:52:00,33.0,23.0,-100.00,NW,320,19.0,24.0,64,0.00,,,-99.99,,2013-01-25 19:52:00,
2013-01-25 14:02:00,33.0,23.0,-100.00,NW,320,19.0,24.0,64,0.00,,,-99.99,,2013-01-25 20:02:00,
2013-01-25 14:12:00,34.0,23.0,-100.00,NW,320,17.0,26.0,64,0.00,,,-99.99,,2013-01-25 20:12:00,
2013-01-25 14:22:00,35.0,23.0,-100.00,NW,325,13.0,23.0,63,0.00,,,-99.99,,2013-01-25 20:22:00,
2013-01-25 14:32:00,36.0,24.0,-100.00,NW,315,12.0,27.0,62,0.00,,,-99.99,,2013-01-25 20:32:00,
2013-01-25 14:42:00,36.0,24.0,-100.00,NW,315,12.0,27.0,62,0.00,,,-99.99,,2013-01-25 20:42:00,
2013-01-25 14:52:00,35.0,24.0,-100.00,NW,325,16.0,24.0,62,0.00,,,-99.99,,2013-01-25 20:52:00,
2013-01-25 15:02:00,35.0,24.0,-100.00,NW,325,16.0,24.0,62,0.00,,,-99.99,,2013-01-25 21:02:00,
2013-01-25 15:11:00,36.0,24.0,-100.00,NW,315,16.0,22.0,62,0.00,,,-99.99,,2013-01-25 21:11:00,
2013-01-25 15:22:00,36.0,25.0,-100.00,NW,315,14.0,21.0,61,0.00,,,-99.99,,2013-01-25 21:22:00,
2013-01-25 15:32:00,36.0,24.0,-100.00,WNW,300,16.0,23.0,60,0.00,,,-99.99,,2013-01-25 21:32:00,
2013-01-25 15:42:00,36.0,24.0,-100.00,WNW,300,16.0,23.0,60,0.00,,,-99.99,,2013-01-25 21:42:00,
2013-01-25 15:52:00,36.0,24.0,-100.00,NW,305,17.0,22.0,60,0.00,,,-99.99,,2013-01-25 21:52:00,
2013-01-25 16:02:00,36.0,24.0,-100.00,NW,305,17.0,22.0,60,0.00,,,-99.99,,2013-01-25 22:02:00,
2013-01-25 16:11:00,36.0,24.0,-100.00,NNW,330,13.0,21.0,60,0.00,,,-99.99,,2013-01-25 22:11:00,
2013-01-25 16:22:00,36.0,24.0,-100.00,NNW,335,15.0,21.0,61,0.00,,,-99.99,,2013-01-25 22:22:00,
2013-01-25 16:32:00,35.0,24.0,-100.00,NW,325,13.0,25.0,63,0.00,,,-99.99,,2013-01-25 22:32:00,
2013-01-25 16:42:00,35.0,24.0,-100.00,NW,325,13.0,25.0,63,0.00,,,-99.99,,2013-01-25 22:42:00,
2013-01-25 16:51:00,35.0,24.0,-100.00,NW,320,11.0,19.0,64,0.00,,,-99.99,,2013-01-25 22:51:00,
2013-01-25 17:02:00,35.0,24.0,-100.00,NW,320,11.0,19.0,64,0.00,,,-99.99,,2013-01-25 23:02:00,
2013-01-25 17:11:00,34.0,24.0,-100.00,NW,315,12.0,21.0,65,0.00,,,-99.99,,2013-01-25 23:11:00,
2013-01-25 17:22:00,34.0,24.0,-100.00,NW,305,12.0,17.0,66,0.00,,,-99.99,,2013-01-25 23:22:00,
2013-01-25 17:32:00,33.0,24.0,-100.00,NW,325,12.0,23.0,67,0.00,,,-99.99,,2013-01-25 23:32:00,
2013-01-25 17:42:00,33.0,24.0,-100.00,NW,325,12.0,23.0,67,0.00,,,-99.99,,2013-01-25 23:42:00,
2013-01-25 17:52:00,33.0,24.0,-100.00,NNW,330,8.0,16.0,69,0.00,,,-99.99,,2013-01-25 23:52:00,
2013-01-25 18:02:00,33.0,24.0,-100.00,NNW,330,8.0,16.0,69,0.00,,,-99.99,,2013-01-26 00:02:00,
2013-01-25 18:11:00,32.0,24.0,-100.00,NNW,330,7.0,11.0,71,0.00,,,-99.99,,2013-01-26 00:11:00,
2013-01-25 18:22:00,32.0,24.0,-100.00,NNW,335,7.0,12.0,72,0.00,,,-99.99,,2013-01-26 00:22:00,
2013-01-25 18:32:00,31.0,24.0,-100.00,NNW,340,7.0,11.0,73,0.00,,,-99.99,,2013-01-26 00:32:00,
2013-01-25 18:42:00,31.0,24.0,-100.00,NNW,340,7.0,11.0,73,0.00,,,-99.99,,2013-01-26 00:42:00,
2013-01-25 18:52:00,31.0,24.0,-100.00,NNW,335,9.0,13.0,74,0.00,,,-99.99,,2013-01-26 00:52:00,
2013-01-25 19:01:00,31.0,24.0,-100.00,NNW,335,9.0,13.0,74,0.00,,,-99.99,,2013-01-26 01:01:00,
2013-01-25 19:11:00,25.0,16.0,-100.00,NNE,15,15.0,22.0,67,0.00,,,-99.99,,2013-01-26 01:11:00,
2013-01-25 19:22:00,24.0,15.0,-100.00,NNE,20,12.0,19.0,68,0.00,,,-99.99,,2013-01-26 01:22:00,
2013-01-25 19:32:00,23.0,13.0,-100.00,North,5,11.0,17.0,66,0.00,,,-99.99,,2013-01-26 01:32:00,
2013-01-25 19:42:00,23.0,13.0,-100.00,North,5,11.0,17.0,66,0.00,,,-99.99,,2013-01-26 01:42:00,
2013-01-25 19:52:00,22.0,13.0,-100.00,North,0,11.0,18.0,66,0.00,,,-99.99,,2013-01-26 01:52:00,
2013-01-25 20:01:00,22.0,13.0,-100.00,North,0,11.0,18.0,66,0.00,,,-99.99,,2013-01-26 02:01:00,
2013-01-25 20:11:00,21.0,12.0,-100.00,NNE,15,11.0,14.0,67,0.00,,,-99.99,,2013-01-26 02:11:00,
2013-01-25 20:22:00,21.0,11.0,-100.00,NNE,15,10.0,14.0,66,0.00,,,-99.99,,2013-01-26 02:22:00,
2013-01-25 20:32:00,19.0,9.0,-100.00,NNE,15,14.0,17.0,62,0.00,,,-99.99,,2013-01-26 02:32:00,
2013-01-25 20:42:00,19.0,9.0,-100.00,NNE,15,14.0,17.0,62,0.00,,,-99.99,,2013-01-26 02:42:00,
2013-01-25 20:52:00,18.0,6.0,-100.00,North,355,16.0,22.0,57,0.00,,,-99.99,,2013-01-26 02:52:00,
2013-01-25 21:02:00,18.0,6.0,-100.00,North,355,16.0,22.0,57,0.00,,,-99.99,,2013-01-26 03:02:00,
2013-01-25 21:11:00,18.0,6.0,-100.00,North,0,11.0,19.0,59,0.00,,,-99.99,,2013-01-26 03:11:00,
2013-01-25 21:21:00,18.0,6.0,-100.00,North,0,11.0,14.0,59,0.00,,,-99.99,,2013-01-26 03:21:00,
2013-01-25 21:31:00,17.0,5.0,-100.00,North,0,12.0,18.0,59,0.00,,,-99.99,,2013-01-26 03:31:00,
2013-01-25 21:42:00,17.0,5.0,-100.00,North,0,12.0,18.0,59,0.00,,,-99.99,,2013-01-26 03:42:00,
2013-01-25 21:51:00,16.0,4.0,-100.00,North,10,11.0,21.0,58,0.00,,,-99.99,,2013-01-26 03:51:00,
2013-01-25 22:02:00,16.0,4.0,-100.00,North,10,11.0,21.0,58,0.00,,,-99.99,,2013-01-26 04:02:00,
2013-01-25 22:12:00,15.0,4.0,-100.00,North,0,10.0,14.0,60,0.00,,,-99.99,,2013-01-26 04:12:00,
2013-01-25 22:21:00,15.0,4.0,-100.00,North,0,9.0,14.0,61,0.00,,,-99.99,,2013-01-26 04:21:00,
2013-01-25 22:32:00,14.0,4.0,-100.00,North,0,8.0,13.0,63,0.00,,,-99.99,,2013-01-26 04:32:00,
2013-01-25 22:42:00,14.0,4.0,-100.00,North,0,8.0,13.0,63,0.00,,,-99.99,,2013-01-26 04:42:00,
2013-01-25 22:52:00,14.0,4.0,-100.00,North,0,7.0,10.0,64,0.00,,,-99.99,,2013-01-26 04:52:00,
2013-01-25 23:03:00,14.0,4.0,-100.00,North,0,7.0,10.0,64,0.00,,,-99.99,,2013-01-26 05:03:00,
2013-01-25 23:12:00,13.0,4.0,-100.00,North,0,8.0,12.0,66,0.00,,,-99.99,,2013-01-26 05:12:00,
2013-01-25 23:23:00,13.0,5.0,-100.00,North,0,9.0,11.0,68,0.00,,,-99.99,,2013-01-26 05:23:00,
2013-01-25 23:33:00,12.0,4.0,-100.00,North,0,8.0,10.0,69,0.00,,,-99.99,,2013-01-26 05:33:00,
2013-01-25 23:41:00,12.0,4.0,-100.00,North,0,8.0,10.0,69,0.00,,,-99.99,,2013-01-26 05:41:00,
2013-01-25 23:52:00,12.0,5.0,-100.00,North,0,7.0,11.0,72,0.00,,,-99.99,,2013-01-26 05:52:00,